CAPE
0 0 0 0 0 0 0 0 0 0 0 0 0 64 13 0 0 0 308 142 275 361 376 398 559 609 690 812 735 844 984 1011 1015 1059 1081 1062 999 944 834 630 560 592 610 604 569 534 489 526 457 567 570 578 609 582 657 670 671 726 671 717 868 1056 1224
0 0 0 0 0 0 0 0 0 0 0 0 0 1 0 0 0 0 41 77 124 83 268 437 487 550 558 578 694 694 874 994 1052 1109 1130 1137 1077 974 857 715 557 574 599 579 572 545 515 487 471 448 530 558 647 637 639 633 619 690 741 680 845 973 1084
0 0 0 0 0 0 0 0 0 0 4 4 0 0 0 0 0 0 0 3 95 0 44 497 578 593 586 613 645 838 749 811 1020 1041 1106 1167 1178 1095 943 770 533 522 551 567 577 580 570 530 475 432 520 560 653 675 690 660 635 638 758 715 810 984 1036
0 0 0 0 0 0 0 0 0 0 0 0 0 0 0 0 0 0 0 0 75 0 352 597 621 713 757 691 660 678 881 822 906 1107 1092 1063 1137 1111 1011 794 550 493 520 542 523 525 520 497 457 396 440 481 657 695 793 727 680 657 706 761 850 955 1048
0 0 0 0 0 0 0 0 0 0 0 0 1 0 0 0 0 0 0 0 0 0 421 624 712 783 929 946 818 581 541 717 827 926 1102 1100 1034 977 885 649 434 409 399 423 463 461 464 436 424 387 381 382 567 705 787 805 717 654 675 790 798 915 1030
0 0 0 0 0 0 0 0 0 0 0 4 10 1 0 0 0 0 0 0 0 0 513 686 721 766 1030 1021 852 802 651 550 567 761 1015 920 1114 953 897 723 400 270 324 23 374 346 366 406 384 382 401 393 424 699 775 860 792 700 636 810 827 859 978
0 0 0 0 0 0 0 0 0 0 0 0 0 1 1 0 0 0 0 0 0 0 554 731 624 675 762 859 751 697 700 655 645 882 1048 938 736 956 922 781 677 416 316 514 416 396 19 273 355 389 434 414 431 550 761 873 852 766 689 842 882 868 922
0 0 0 0 0 0 0 0 0 0 0 0 0 0 0 0 0 0 0 0 0 0 489 629 584 608 606 777 810 731 689 751 754 950 1051 930 715 843 1046 799 848 820 476 426 316 521 441 401 392 411 440 403 465 492 738 867 908 840 765 882 1004 950 921
0 0 0 0 0 0 0 0 0 0 0 0 0 0 0 0 0 0 0 0 0 0 378 641 454 444 527 575 898 747 798 827 920 960 970 802 604 695 841 919 951 950 807 610 366 378 424 363 448 416 397 413 507 542 701 825 942 920 841 906 1146 1144 1053
0 0 0 0 0 0 0 0 0 0 0 0 0 25 1 0 0 0 0 0 0 0 0 296 163 33 233 342 635 826 885 886 855 874 798 567 706 511 759 846 910 897 923 719 443 400 396 400 382 426 469 365 518 568 558 788 935 987 931 929 1167 1314 1254
0 0 0 0 0 0 0 0 0 0 0 0 0 0 0 0 0 0 0 0 0 0 0 0 0 9 60 297 874 924 831 736 696 690 594 600 650 591 528 857 921 817 785 697 536 360 367 363 426 452 482 412 530 552 689 793 896 1025 1039 1011 1171 1354 1396
0 0 0 0 0 0 0 0 0 0 0 0 0 0 0 0 0 0 0 0 0 0 0 0 0 0 3 42 170 552 567 574 511 429 525 545 548 520 560 610 744 914 858 664 579 443 391 457 397 412 451 499 367 394 604 858 900 1086 1177 1150 1196 1348 1440
0 0 0 0 0 0 0 0 0 0 0 0 0 0 0 0 0 0 0 0 0 0 0 0 0 0 3 0 227 493 533 472 454 548 518 405 406 436 468 468 447 651 837 718 592 470 376 442 416 410 420 355 378 340 540 821 986 1123 1306 1314 1285 1334 1429
0 0 0 0 0 0 0 0 0 0 0 0 0 0 0 0 0 0 0 0 0 0 57 300 28 111 167 518 665 685 610 544 553 587 516 443 741 852 898 776 740 616 544 717 746 527 375 453 444 381 316 317 366 352 436 690 965 1146 1302 1411 1379 1354 1391
0 0 0 0 0 0 0 0 0 0 0 0 0 1 0 0 0 65 2 0 0 0 397 863 742 971 946 916 728 594 581 632 655 606 503 528 691 785 799 758 848 857 839 915 911 617 410 336 396 440 357 357 299 315 362 568 960 1269 1336 1446 1440 1401 1380
0 0 0 0 0 0 0 0 0 0 0 0 0 0 6 0 0 82 51 54 17 105 1052 1116 1087 954 877 617 510 491 656 693 600 656 635 606 645 693 666 618 622 650 708 730 821 846 689 434 322 298 318 385 338 339 378 429 713 1056 1268 1443 1474 1457 1420
0 0 0 0 0 0 0 0 0 0 0 0 0 8 73 15 40 66 123 17 0 128 1109 1106 863 917 897 787 761 707 620 725 730 718 774 684 728 735 582 545 518 489 461 524 550 654 770 718 476 344 311 370 407 357 335 338 593 920 1207 1359 1484 1484 1450
0 0 0 0 0 0 0 0 0 0 0 0 3 22 335 452 236 63 1 0 427 870 1190 848 631 688 856 907 910 696 709 730 772 788 850 840 787 662 556 500 502 446 447 404 398 479 555 713 690 478 536 622 515 524 482 449 644 972 1177 1250 1329 1454 1430
0 0 0 0 0 0 0 0 3 0 8 113 396 647 674 914 746 536 419 774 795 1106 1062 813 836 885 893 941 1027 946 850 874 756 745 731 700 617 559 448 374 403 439 355 342 320 322 348 485 715 660 643 690 774 728 649 527 537 658 970 1036 1145 1221 1439
0 0 0 0 0 0 0 0 403 371 452 418 215 213 560 817 868 1043 795 935 1091 1141 1092 1053 1013 895 1025 969 977 966 851 773 768 674 569 584 510 458 393 363 440 460 388 312 250 298 242 95 155 612 630 540 641 639 699 711 655 558 521 613 887 1028 1228
0 0 0 0 0 0 1 262 203 18 122 21 0 14 322 712 731 1171 1167 1271 1316 1260 1243 1190 1086 966 946 790 569 844 882 769 698 615 553 613 532 463 416 345 332 298 375 346 336 316 260 49 3 4 303 583 483 537 688 735 694 673 572 611 672 645 874
0 0 0 0 0 0 0 0 0 0 0 0 34 38 246 419 861 1063 1353 1364 1460 1388 1104 1062 945 887 630 65 364 936 921 821 709 612 622 583 535 476 380 351 283 290 371 374 317 32 16 0 0 0 0 0 370 529 530 654 676 690 660 580 600 506 610
0 0 0 0 0 0 0 0 0 0 2 23 10 0 0 395 875 1206 1407 1338 1172 1033 1069 1015 848 688 44 0 173 855 878 818 704 676 641 620 506 447 504 511 529 518 458 382 308 24 0 0 0 0 0 0 0 14 357 452 584 672 702 708 665 702 735
0 0 0 0 0 0 2 0 0 1 6 0 0 0 0 428 1009 1280 1244 871 796 962 1031 922 801 517 56 0 719 952 912 720 682 641 523 423 374 360 424 517 551 480 412 336 280 91 2 0 0 0 0 0 0 0 25 275 392 577 707 702 661 735 812
16 0 0 0 0 0 0 0 0 0 0 0 0 0 0 262 1111 1217 1157 786 617 699 853 829 483 248 108 457 917 927 835 673 571 507 369 436 285 253 332 467 444 412 346 260 0 0 0 0 0 1 3 0 0 0 2 92 299 430 592 664 634 637 619
0 0 0 0 0 0 0 0 0 0 0 0 0 10 125 366 901 1251 1182 818 536 691 714 657 370 327 726 976 1013 924 853 692 637 538 428 154 130 74 257 383 332 210 0 0 2 2 18 1 0 65 63 104 456 28 2 95 281 383 458 560 660 662 640
0 0 0 0 0 0 0 0 0 77 0 0 0 2 147 208 481 804 1006 727 424 684 794 589 482 671 916 968 971 945 840 710 590 506 330 73 40 11 196 0 198 186 69 2 1 231 138 8 69 243 318 526 350 17 68 198 332 396 478 590 669 692 611
2 0 0 0 0 0 0 0 7 0 0 55 0 4 111 277 203 441 668 576 552 714 642 501 568 824 931 849 865 861 837 717 613 566 219 0 0 0 67 178 363 329 60 1 119 333 38 34 111 280 446 614 463 101 253 383 500 473 490 564 496 637 618
0 0 0 0 0 0 0 0 0 4 4 0 0 0 37 242 375 386 435 568 743 850 718 770 810 779 775 801 769 788 741 622 553 356 0 0 0 0 335 390 92 114 0 0 352 289 125 0 37 211 328 477 626 532 536 493 588 646 595 547 573 684 714
0 0 25 0 0 10 26 17 9 41 118 50 0 125 215 288 446 592 717 595 831 889 885 878 792 727 700 701 690 680 654 564 518 120 0 0 0 0 160 381 396 65 59 122 325 277 88 125 128 171 284 434 592 606 553 542 454 423 478 520 620 446 412
0 1 0 2 3 172 86 197 195 227 197 100 84 194 242 284 508 643 520 570 714 788 845 829 705 682 668 656 610 598 567 509 237 0 0 0 0 0 242 300 334 143 261 348 314 346 178 121 55 42 261 420 433 235 466 475 456 304 336 472 414 571 601
0 2 175 218 299 268 270 251 242 253 255 246 216 219 234 261 366 422 403 368 483 628 721 713 689 645 607 600 568 518 485 436 12 0 0 0 0 0 2 162 268 222 284 330 351 350 247 157 81 60 295 364 109 268 221 310 363 416 471 452 541 558 446
385 303 302 384 405 389 416 400 363 328 280 277 283 260 293 330 342 366 481 377 557 680 749 725 761 643 570 557 528 478 434 106 0 0 0 0 0 0 0 110 264 298 327 416 391 405 305 140 251 254 250 62 208 297 263 328 195 438 421 290 295 330 357
258 333 380 350 295 363 450 483 431 453 441 377 412 384 378 383 398 444 562 590 729 828 847 723 662 582 533 479 444 439 326 0 0 0 0 0 0 0 0 29 177 303 390 462 470 420 342 313 306 301 268 143 28 110 88 51 18 0 0 6 20 25 22
177 241 351 290 190 304 434 471 443 457 462 480 487 490 486 514 548 544 530 573 604 703 708 714 678 594 490 431 399 355 17 159 78 0 0 0 0 0 0 8 115 255 338 464 484 443 349 300 323 114 172 98 65 36 0 0 0 0 0 1 0 0 0
183 164 360 273 247 352 366 444 538 653 633 495 567 777 834 830 748 748 729 603 604 604 634 632 618 608 471 387 357 283 188 115 41 0 0 0 0 0 0 23 58 40 188 379 469 404 339 301 230 143 60 0 0 37 32 24 21 41 35 24 18 18 27
11 205 335 227 270 331 409 596 697 771 789 673 798 1076 1077 1054 1015 989 894 872 770 679 583 577 513 422 387 377 304 239 198 126 19 0 0 0 0 0 0 0 0 30 213 224 340 339 346 349 240 228 198 126 5 27 9 20 24 36 20 4 0 0 7
Wind_Speed
nan nan nan nan nan nan nan nan nan nan nan nan nan nan nan nan nan nan 20 17 15 12 15 15 19 21 20 24 28 31 33 32 27 23 20 17 14 12 13 14 13 12 16 15 12 10 9 9 10 8 6 7 8 7 7 5 4 4 4 5 6 8 9
nan nan nan nan nan nan nan nan nan nan nan nan nan nan nan nan nan nan nan nan 15 nan 13 14 17 20 16 19 23 26 31 34 31 25 22 19 16 14 14 16 15 12 15 16 14 11 10 9 11 11 8 7 8 7 7 5 5 4 3 4 6 9 9
nan nan nan nan nan nan nan nan nan nan nan nan nan nan nan nan nan nan nan nan nan nan nan 15 15 17 14 14 18 25 30 33 32 29 24 20 20 19 17 17 18 15 15 16 15 12 11 9 12 13 11 8 8 7 6 6 5 3 2 4 6 9 9
nan nan nan nan nan nan nan nan nan nan nan nan nan nan nan nan nan nan nan nan nan nan 14 16 14 15 15 13 16 19 23 29 30 31 27 23 22 24 23 21 20 16 13 14 16 15 14 12 12 15 13 9 7 7 7 6 5 5 4 4 6 7 8
nan nan nan nan nan nan nan nan nan nan nan nan nan nan nan nan nan nan nan nan nan nan 16 19 15 15 16 15 13 14 18 24 27 28 26 23 24 22 20 24 28 28 23 19 18 20 18 17 16 15 14 10 8 9 8 7 6 7 6 5 6 7 9
nan nan nan nan nan nan nan nan nan nan nan nan nan nan nan nan nan nan nan nan nan nan 19 19 17 14 17 17 14 12 15 19 23 26 25 23 23 22 23 27 29 29 33 nan 37 34 29 23 20 15 13 12 11 10 9 8 7 8 8 8 8 8 9
nan nan nan nan nan nan nan nan nan nan nan nan nan nan nan nan nan nan nan nan nan nan 19 19 17 16 17 20 17 12 12 15 19 23 27 25 22 21 23 22 20 19 23 25 31 34 nan 30 22 19 16 12 11 11 11 10 9 8 10 9 10 9 9
nan nan nan nan nan nan nan nan nan nan nan nan nan nan nan nan nan nan nan nan nan nan 18 17 18 17 17 21 18 13 14 16 17 20 26 30 27 24 23 22 19 20 23 27 31 30 26 29 27 23 18 14 12 11 12 12 9 10 11 12 12 11 10
nan nan nan nan nan nan nan nan nan nan nan nan nan nan nan nan nan nan nan nan nan nan 17 17 18 18 17 18 18 17 17 18 18 19 24 29 28 26 23 20 19 21 24 25 26 30 28 30 33 33 25 16 14 11 11 12 11 12 12 13 14 13 12
nan nan nan nan nan nan nan nan nan nan nan nan nan nan nan nan nan nan nan nan nan nan nan 15 16 nan 17 16 17 19 19 18 16 17 21 28 29 27 24 21 20 19 20 24 27 28 29 30 27 28 30 28 20 15 11 12 13 14 14 15 14 14 13
nan nan nan nan nan nan nan nan nan nan nan nan nan nan nan nan nan nan nan nan nan nan nan nan nan nan nan 17 18 19 19 19 18 17 21 25 28 26 24 22 21 22 22 21 23 23 25 31 30 27 29 29 28 22 16 14 14 15 15 16 15 15 14
nan nan nan nan nan nan nan nan nan nan nan nan nan nan nan nan nan nan nan nan nan nan nan nan nan nan nan nan 16 18 21 21 20 20 21 25 26 27 27 25 22 19 19 21 21 19 21 28 33 33 28 29 31 28 21 18 16 15 17 16 15 15 14
nan nan nan nan nan nan nan nan nan nan nan nan nan nan nan nan nan nan nan nan nan nan nan nan nan nan nan nan 16 18 23 24 23 22 23 24 26 27 28 26 24 21 16 17 21 26 25 25 30 35 34 33 36 36 31 25 20 16 16 16 15 15 15
nan nan nan nan nan nan nan nan nan nan nan nan nan nan nan nan nan nan nan nan nan nan nan 15 nan 16 17 19 22 25 25 24 24 23 23 24 25 26 27 27 26 23 20 19 20 24 28 26 27 33 36 36 33 31 33 33 24 19 19 16 15 15 14
nan nan nan nan nan nan nan nan nan nan nan nan nan nan nan nan nan nan nan nan nan nan 17 15 16 18 19 20 24 24 24 25 25 23 22 20 21 23 25 27 26 23 21 22 22 24 25 27 26 28 34 37 36 33 34 33 27 23 20 18 17 16 15
nan nan nan nan nan nan nan nan nan nan nan nan nan nan nan nan nan nan nan nan nan 12 16 18 19 20 19 21 26 24 24 24 24 23 21 18 18 20 23 24 25 24 23 22 22 22 22 23 25 27 32 36 36 33 33 31 28 27 23 20 18 17 18
nan nan nan nan nan nan nan nan nan nan nan nan nan nan nan nan nan nan 23 nan nan 13 16 18 18 19 19 22 22 22 21 21 21 20 20 18 18 19 20 23 22 21 21 20 20 22 22 20 20 23 30 32 30 32 32 30 32 31 26 23 21 20 21
nan nan nan nan nan nan nan nan nan nan nan nan nan nan 29 26 26 nan nan nan 12 16 16 14 16 18 19 21 21 20 22 22 21 20 19 18 20 19 21 22 21 19 18 17 17 19 21 21 19 19 23 28 31 34 34 34 35 32 33 31 26 23 25
nan nan nan nan nan nan nan nan nan nan nan 32 38 32 30 28 27 25 21 14 13 14 17 16 15 15 18 18 20 20 20 22 22 21 19 19 22 23 23 22 21 18 15 14 14 16 18 21 22 21 20 25 29 32 34 34 31 28 30 29 28 26 27
nan nan nan nan nan nan nan nan 21 24 28 29 37 32 29 29 27 25 21 18 17 17 17 15 13 14 14 17 19 19 19 21 22 23 22 21 21 23 22 19 18 15 15 14 13 14 16 nan 19 20 20 23 25 27 30 31 32 30 28 28 29 33 31
nan nan nan nan nan nan nan 18 15 nan 22 nan nan nan 27 29 28 26 23 22 21 20 19 15 15 14 15 18 16 18 18 21 23 23 23 20 20 21 22 20 18 16 17 15 13 14 15 nan nan nan 21 23 23 25 27 29 30 31 30 28 28 33 31
nan nan nan nan nan nan nan nan nan nan nan nan nan nan 28 27 25 27 27 25 24 23 20 18 15 15 18 nan 18 17 19 22 23 24 25 24 22 21 21 21 19 18 16 16 17 nan nan nan nan nan nan nan 23 23 24 25 25 26 30 30 30 31 33
nan nan nan nan nan nan nan nan nan nan nan nan nan nan nan 23 24 26 26 26 24 23 20 17 18 18 nan nan 15 14 18 22 23 26 29 27 24 23 23 23 24 21 18 17 16 nan nan nan nan nan nan nan nan nan 22 23 22 21 23 28 34 33 34
nan nan nan nan nan nan nan nan nan nan nan nan nan nan nan 19 21 23 25 23 23 20 19 21 21 19 nan nan 16 18 21 24 24 25 28 29 29 28 26 26 24 24 24 22 19 nan nan nan nan nan nan nan nan nan nan 22 21 18 20 27 35 42 48
nan nan nan nan nan nan nan nan nan nan nan nan nan nan nan 18 20 22 23 21 21 22 21 21 19 14 17 17 17 19 21 24 24 25 28 31 29 28 27 26 27 28 27 25 nan nan nan nan nan nan nan nan nan nan nan nan 20 22 27 34 39 43 49
nan nan nan nan nan nan nan nan nan nan nan nan nan nan 18 23 20 20 21 19 20 21 19 17 17 18 17 19 20 21 21 23 22 24 28 30 30 nan 27 28 29 29 nan nan nan nan nan nan nan nan nan 14 18 nan nan nan 24 30 35 38 39 41 45
nan nan nan nan nan nan nan nan nan nan nan nan nan nan 17 18 20 21 19 20 20 21 17 17 21 19 19 19 20 21 21 21 21 23 26 nan nan nan 28 nan 31 31 nan nan nan 29 28 nan nan 21 18 19 21 nan nan 29 35 38 38 39 41 41 42
nan nan nan nan nan nan nan nan nan nan nan nan nan nan 20 16 19 20 20 20 21 20 20 22 22 19 20 19 20 21 20 20 21 20 20 nan nan nan nan 30 31 31 nan nan 30 31 nan nan 25 25 23 23 25 28 28 31 34 39 41 41 43 44 44
nan nan nan nan nan nan nan nan nan nan nan nan nan nan nan 19 15 19 23 20 20 20 23 25 23 20 17 19 18 20 20 21 20 18 nan nan nan nan 28 31 nan 32 nan nan 29 31 30 nan nan 26 24 24 25 27 24 26 25 29 36 40 41 40 43
nan nan nan nan nan nan nan nan nan nan 24 nan nan 19 17 13 17 19 19 18 20 22 23 25 20 19 19 21 20 22 22 22 19 18 nan nan nan nan 26 29 31 nan nan 30 30 30 nan 27 26 25 24 22 23 23 27 31 29 27 31 35 35 34 35
nan nan nan nan nan 35 nan 35 30 26 25 21 nan 19 18 19 19 17 16 19 19 21 21 21 21 20 19 21 21 22 23 22 19 nan nan nan nan nan 23 26 29 32 32 32 31 29 28 25 nan nan 24 21 19 22 25 27 28 29 31 33 33 33 34
nan nan 40 37 34 33 33 31 31 27 25 24 20 19 19 21 20 18 18 20 21 22 21 20 22 20 19 22 22 22 22 21 nan nan nan nan nan nan nan 24 28 32 34 34 32 30 27 24 nan nan 25 23 21 22 20 20 21 25 28 27 27 30 34
37 38 37 33 35 36 33 30 27 25 25 26 24 22 22 22 21 20 21 19 19 20 20 21 24 24 20 22 24 24 22 21 nan nan nan nan nan nan nan 22 25 31 33 34 32 31 27 24 24 26 27 nan 23 20 18 17 18 21 22 25 28 31 32
35 33 30 31 36 29 29 27 27 26 25 26 26 24 21 20 19 18 19 19 19 19 20 21 23 24 23 23 24 24 22 nan nan nan nan nan nan nan nan nan 23 27 29 30 31 31 28 26 26 27 27 26 nan 23 nan nan nan nan nan nan nan nan nan
29 25 26 29 32 31 27 27 26 24 23 26 26 22 19 17 16 16 17 17 17 18 17 17 21 22 23 22 23 23 nan 21 nan nan nan nan nan nan nan nan 21 23 25 26 28 30 28 28 27 26 24 nan nan nan nan nan nan nan nan nan nan nan nan
28 27 29 30 30 29 26 24 22 20 22 24 25 20 19 18 17 15 15 16 19 17 18 18 17 21 22 22 23 23 21 21 nan nan nan nan nan nan nan nan nan nan 22 24 26 27 27 27 26 23 nan nan nan nan nan nan nan nan nan nan nan nan nan
nan 28 29 27 29 30 30 27 24 22 22 22 23 20 19 20 18 18 18 18 18 23 21 21 19 21 24 22 22 24 23 21 nan nan nan nan nan nan nan nan nan nan 22 22 23 24 25 26 25 23 23 23 nan nan nan nan nan nan nan nan nan nan nan
Wind_Direction
nan nan nan nan nan nan nan nan nan nan nan nan nan nan nan nan nan nan 260 251 251 241 254 244 226 227 225 227 230 235 237 241 248 252 250 243 236 236 247 257 251 235 231 239 250 262 264 270 273 281 290 293 298 279 262 260 245 226 207 194 187 186 187
nan nan nan nan nan nan nan nan nan nan nan nan nan nan nan nan nan nan nan nan 256 nan 263 246 236 231 224 229 230 232 236 241 248 250 253 256 252 241 235 246 249 240 230 239 245 254 272 280 281 277 281 283 291 285 276 273 257 251 216 206 196 190 191
nan nan nan nan nan nan nan nan nan nan nan nan nan nan nan nan nan nan nan nan nan nan nan 261 252 240 230 231 231 233 232 233 240 245 248 251 257 251 243 243 247 237 225 230 239 246 255 263 273 276 274 279 275 273 274 275 281 283 272 219 209 197 194
nan nan nan nan nan nan nan nan nan nan nan nan nan nan nan nan nan nan nan nan nan nan 285 281 268 250 241 240 242 237 230 231 234 238 243 250 251 250 238 234 245 244 228 228 235 241 243 244 251 261 270 268 278 279 275 261 250 254 251 237 225 210 199
nan nan nan nan nan nan nan nan nan nan nan nan nan nan nan nan nan nan nan nan nan nan 287 280 275 258 242 246 246 248 239 231 233 237 238 239 245 242 239 236 230 218 208 207 224 229 232 232 236 247 262 273 272 264 267 267 265 251 243 236 232 218 211
nan nan nan nan nan nan nan nan nan nan nan nan nan nan nan nan nan nan nan nan nan nan 273 281 282 265 243 235 246 240 242 240 237 237 237 238 241 242 226 228 240 233 213 nan 200 202 213 230 228 237 249 258 263 267 263 262 258 248 251 240 230 224 217
nan nan nan nan nan nan nan nan nan nan nan nan nan nan nan nan nan nan nan nan nan nan 275 277 279 269 244 231 239 236 232 237 240 239 239 230 234 245 250 248 242 243 243 232 223 213 nan 203 225 234 234 242 258 269 263 256 261 257 251 246 237 233 226
nan nan nan nan nan nan nan nan nan nan nan nan nan nan nan nan nan nan nan nan nan nan 265 268 271 266 245 232 236 239 238 239 233 238 240 236 227 232 242 256 251 243 240 234 232 232 216 209 207 226 232 227 234 248 262 258 263 264 255 243 240 237 231
nan nan nan nan nan nan nan nan nan nan nan nan nan nan nan nan nan nan nan nan nan nan 259 264 265 267 255 241 239 246 244 240 235 231 240 246 237 227 233 248 256 251 247 244 241 236 227 218 215 209 214 228 226 226 247 259 255 259 257 248 245 241 238
nan nan nan nan nan nan nan nan nan nan nan nan nan nan nan nan nan nan nan nan nan nan nan 255 259 nan 263 248 241 243 247 248 239 235 237 242 242 238 230 227 238 254 257 255 251 246 232 225 228 230 221 206 215 217 219 241 251 250 251 248 247 247 244
nan nan nan nan nan nan nan nan nan nan nan nan nan nan nan nan nan nan nan nan nan nan nan nan nan nan nan 263 249 251 247 243 244 241 241 243 246 246 244 236 223 226 242 253 258 254 237 224 223 228 232 229 219 211 205 219 238 249 250 250 249 248 248
nan nan nan nan nan nan nan nan nan nan nan nan nan nan nan nan nan nan nan nan nan nan nan nan nan nan nan nan 253 247 245 246 248 244 240 239 243 244 244 243 241 239 232 231 239 252 244 230 227 226 226 227 232 228 210 210 225 239 244 248 252 255 254
nan nan nan nan nan nan nan nan nan nan nan nan nan nan nan nan nan nan nan nan nan nan nan nan nan nan nan nan 261 251 249 247 248 248 242 240 239 240 245 242 238 236 240 244 236 225 225 235 236 234 230 225 225 228 228 216 216 227 242 247 252 257 259
nan nan nan nan nan nan nan nan nan nan nan nan nan nan nan nan nan nan nan nan nan nan nan 274 nan 263 258 248 246 243 243 243 242 243 243 239 236 237 239 244 240 235 230 224 231 240 237 232 234 233 228 227 224 228 235 232 218 221 234 241 245 247 253
nan nan nan nan nan nan nan nan nan nan nan nan nan nan nan nan nan nan nan nan nan nan 270 264 256 251 251 251 247 246 245 245 242 241 240 238 236 236 239 243 240 238 233 230 233 239 242 239 233 232 229 228 227 223 230 240 234 226 234 240 242 245 245
nan nan nan nan nan nan nan nan nan nan nan nan nan nan nan nan nan nan nan nan nan 251 253 251 245 245 245 246 249 245 246 249 249 247 246 243 238 234 239 243 244 238 234 232 235 241 240 238 237 232 233 233 229 222 222 227 238 241 239 240 245 244 241
nan nan nan nan nan nan nan nan nan nan nan nan nan nan nan nan nan nan 284 nan nan 252 252 248 239 245 241 243 253 256 251 251 252 253 252 249 240 241 243 242 240 237 233 234 232 231 240 242 238 233 232 233 234 226 220 222 228 236 243 243 242 241 242
nan nan nan nan nan nan nan nan nan nan nan nan nan nan 263 266 277 nan nan nan 251 255 256 258 237 241 246 251 254 262 265 262 258 251 252 251 249 245 241 238 236 233 231 232 229 229 231 237 243 239 237 235 228 222 221 224 230 232 235 230 229 240 243
nan nan nan nan nan nan nan nan nan nan nan 261 265 262 264 266 272 279 280 276 276 265 253 250 244 245 247 250 259 259 261 262 260 257 249 244 240 238 234 232 232 229 227 226 226 225 229 234 240 243 235 231 231 231 230 228 232 240 242 243 236 234 241
nan nan nan nan nan nan nan nan 248 256 257 258 257 251 259 266 273 275 278 280 275 270 258 249 253 256 250 251 253 253 258 264 262 254 247 241 238 238 235 232 231 233 232 233 232 229 235 nan 235 239 237 235 235 235 238 239 235 236 241 243 241 238 235
nan nan nan nan nan nan nan 262 260 nan 262 nan nan nan 255 261 265 269 273 275 274 271 264 264 258 255 256 251 241 253 257 254 253 252 246 243 237 237 233 233 233 235 234 235 238 238 234 nan nan nan 234 235 237 241 244 246 246 241 239 242 246 247 242
nan nan nan nan nan nan nan nan nan nan nan nan nan nan 255 251 260 270 274 279 277 273 269 267 266 263 259 nan 254 254 254 253 249 249 249 244 238 234 234 232 233 232 235 239 237 nan nan nan nan nan nan nan 238 242 245 248 251 246 242 242 243 245 247
nan nan nan nan nan nan nan nan nan nan nan nan nan nan nan 264 273 274 276 274 273 275 276 274 269 262 nan nan 268 255 260 256 252 249 246 243 236 232 231 231 230 227 229 235 235 nan nan nan nan nan nan nan nan nan 248 251 248 251 254 252 250 249 246
nan nan nan nan nan nan nan nan nan nan nan nan nan nan nan 273 277 276 270 267 269 270 272 272 269 270 nan nan 268 266 268 263 257 254 248 242 235 232 232 235 231 227 229 231 233 nan nan nan nan nan nan nan nan nan nan 253 255 249 249 253 249 244 238
nan nan nan nan nan nan nan nan nan nan nan nan nan nan nan 275 280 274 268 262 263 265 267 269 269 274 275 275 277 278 276 268 259 250 246 242 236 232 229 229 229 230 230 232 nan nan nan nan nan nan nan nan nan nan nan nan 263 258 246 242 246 247 248
nan nan nan nan nan nan nan nan nan nan nan nan nan nan 279 283 281 271 271 261 257 264 267 270 269 263 269 272 274 276 276 274 265 255 249 244 237 nan 228 227 231 231 nan nan nan nan nan nan nan nan nan 279 282 nan nan nan 267 254 250 247 245 249 252
nan nan nan nan nan nan nan nan nan nan nan nan nan nan 277 280 277 275 264 262 259 265 260 260 261 261 263 270 275 276 277 275 269 260 252 nan nan nan 226 nan 226 231 nan nan nan 234 236 nan nan 244 246 262 276 nan nan 278 266 258 254 250 249 250 254
nan nan nan nan nan nan nan nan nan nan nan nan nan nan 279 270 271 271 265 258 263 269 265 265 262 262 268 269 274 272 273 276 273 267 260 nan nan nan nan 226 226 229 nan nan 235 236 nan nan 241 246 248 255 259 266 270 270 266 259 254 250 249 250 252
nan nan nan nan nan nan nan nan nan nan nan nan nan nan nan 288 274 266 265 264 262 268 263 261 266 263 269 277 275 275 276 275 274 270 nan nan nan nan 230 225 nan 227 nan nan 234 234 235 nan nan 243 247 252 255 256 257 261 261 260 256 253 251 251 254
nan nan nan nan nan nan nan nan nan nan 260 nan nan 282 283 278 277 281 273 266 266 262 263 264 256 267 275 274 272 273 275 275 272 267 nan nan nan nan 234 229 226 nan nan 231 232 230 nan 228 233 238 243 247 254 258 252 251 256 258 254 249 250 254 256
nan nan nan nan nan 263 nan 268 263 258 258 266 nan 284 282 276 276 274 265 268 265 266 266 269 273 272 273 272 270 271 272 273 276 nan nan nan nan nan 241 232 230 228 228 230 231 229 226 224 nan nan 239 239 241 253 256 256 259 256 246 244 248 253 257
nan nan 252 254 257 260 262 266 273 268 261 263 272 275 270 266 266 268 269 263 259 265 267 272 275 274 271 274 273 272 273 276 nan nan nan nan nan nan nan 239 235 233 233 235 235 233 228 222 nan nan 240 235 234 243 248 255 257 251 244 243 249 256 259
248 248 252 255 254 252 257 259 262 261 262 266 264 260 260 261 265 260 257 255 265 269 273 272 273 274 271 274 277 276 273 270 nan nan nan nan nan nan nan 246 241 239 238 238 237 235 229 222 227 236 235 nan 227 231 241 244 247 246 237 236 238 238 243
250 256 257 261 260 257 258 258 259 259 260 264 264 258 258 264 267 266 264 252 256 265 275 279 277 279 273 271 275 276 275 nan nan nan nan nan nan nan nan nan 248 246 241 239 239 236 230 226 227 228 231 231 nan 230 nan nan nan nan nan nan nan nan nan
249 247 256 258 258 262 266 268 262 260 259 262 264 265 268 264 263 271 272 265 259 264 265 271 279 277 278 276 273 273 nan 271 nan nan nan nan nan nan nan nan 251 249 244 240 240 238 234 234 231 225 225 nan nan nan nan nan nan nan nan nan nan nan nan
244 251 260 260 257 265 263 266 263 257 251 256 257 256 257 260 271 273 275 282 284 277 273 268 273 282 277 277 278 279 274 275 nan nan nan nan nan nan nan nan nan nan 243 242 241 238 235 235 232 224 nan nan nan nan nan nan nan nan nan nan nan nan nan
nan 247 257 257 251 248 252 258 253 250 248 255 262 260 260 259 262 273 278 276 279 287 282 275 270 276 282 279 280 281 280 279 nan nan nan nan nan nan nan nan nan nan 244 243 241 237 234 236 235 226 223 222 nan nan nan nan nan nan nan nan nan nan nan